[[{"header":{"parameterUnit":"m.s-1","parameterCategory":1,"la1":30.2991,"la2":30.254,"lo1":-89.0895,"lo2":-89.0444,"dy":0.0017,"dx":0.0017,"nx":28,"ny":28,"refTime":"2024-06-05T09:00:00:Z","depth":0,"parameterNumber":2,"parameterNumberName":"U-component_of_WINDS"},"data":[0,0,0,0,0,0,0,0,0,0,0,0,0,0,0,0,0,0,0,0,0,0,0,0,0,0,0,0,0,0,0,0,0,0,0,0,0,0,0,0,0,0,0,0,0,0,0,0,0,0,0,0,0,0,0,0,0,0,3.9281,3.9282,0,3.9382,3.9383,3.9384,3.9349,3.9347,3.9345,3.9343,3.9447,3.9452,3.9457,0,0,0,0,0,0,0,0,0,0,0,0,0,3.9058,3.9062,3.9281,3.9282,3.9283,3.9382,3.9383,3.9385,3.935,3.9347,3.9344,3.9342,3.9446,3.9451,3.9457,0,0,0,0,0,0,0,0,0,0,0,0,0,3.9156,3.9064,3.928,3.9278,3.9278,3.9382,3.9383,3.9385,3.935,3.9347,3.9344,3.9341,3.9444,3.9451,3.9458,3.957,0,0,3.948,3.9483,0,0,0,0,0,0,0,0,3.9151,3.9165,3.9277,3.9278,3.9279,3.935,3.9343,3.9447,3.9351,3.9323,3.9343,3.9339,3.9417,3.9427,3.9453,3.9575,3.9579,3.9481,3.9485,3.9488,3.949,0,0,0,0,0,0,0,3.9144,3.916,3.9321,3.9279,3.928,3.9272,3.9282,3.9362,3.9388,3.9325,3.9323,3.9335,3.9417,3.9446,3.9455,3.9581,3.9481,3.9487,3.9492,3.9494,3.9799,3.9803,0,0,0,0,0,0,3.9137,3.9155,3.9317,3.9324,3.9205,3.9278,3.929,3.933,3.9387,3.9392,3.9338,3.9333,3.9435,3.9447,3.9459,3.9593,3.9488,3.9495,3.9499,3.9795,3.98,3.9804,0,0,0,0,0,0,3.9132,3.9151,3.9313,3.9239,3.9259,3.9286,3.9332,3.9334,3.9363,3.9397,3.9401,3.9363,3.9433,3.9449,3.9542,3.9596,3.9498,3.9505,3.9791,3.9797,3.9802,3.9862,0,0,0,0,0,0,3.9126,3.915,3.9193,3.924,3.9263,3.9395,3.9335,3.9339,3.9375,3.937,3.9421,3.9426,3.9432,3.9532,3.955,3.9604,3.9511,3.9786,3.9793,3.98,3.9856,3.9869,3.9881,0,0,0,0,0,3.9118,3.9206,3.9195,3.9215,3.9317,3.9398,3.9411,3.9416,3.938,3.9423,3.9445,3.9424,3.9588,3.9542,3.9561,3.9619,3.9783,3.9791,3.98,3.985,3.9867,3.9881,0,0,0,0,0,0,3.9164,3.9212,3.92,3.9306,3.9349,3.9392,3.9447,3.9434,3.9487,3.948,3.9484,3.9496,3.9592,3.9615,3.9563,3.973,3.968,3.9693,3.9711,3.9727,3.974,3.9732,3.9517,0,0,0,0,0,3.9187,3.9249,3.9287,3.9377,3.9399,3.9419,3.9455,3.9455,3.9499,3.9517,3.9546,3.9589,3.965,3.969,3.9748,3.9859,3.987,3.9909,3.9921,3.9932,3.9942,4.0002,4.002,3.9831,3.9831,3.9831,0,0,3.9234,3.9268,3.9307,3.9387,3.942,3.9484,3.9435,3.9505,3.9553,3.9528,3.9617,3.964,3.9689,3.9792,3.9839,3.9814,3.9997,3.9942,3.995,3.9955,4.0013,4.003,4.0046,3.9837,3.9836,3.9835,0,0,3.9352,3.9384,3.9462,3.9496,3.9546,3.956,3.9578,3.9625,3.9639,3.9729,3.9711,3.9769,3.9874,3.9909,3.9941,4.0074,4.0057,4.0093,4.0158,4.0217,4.0232,4.0245,4.0291,4.0308,4.0104,4.0104,4.0104,0,3.9404,3.95,3.9504,3.9576,3.9612,3.9592,3.9671,3.9704,3.9771,3.9796,3.9768,3.9899,3.9931,4.0041,4.0074,4.0101,4.0122,4.0086,4.0229,4.0242,4.0255,4.0299,4.0317,4.0108,4.0107,4.0107,4.0107,0,3.9562,3.9629,3.9686,3.975,3.9793,3.9868,3.9883,3.9926,3.9922,3.9939,4.0031,4.0068,4.0133,4.016,4.0158,4.027,4.0253,4.0228,4.0177,4.0277,4.0318,4.0335,4.0113,4.0112,4.0111,4.011,0,0,3.9711,3.9777,3.9798,3.9827,3.9881,3.9933,4.0007,4.0071,4.0107,4.0154,4.0216,4.0306,4.0282,4.0319,4.032,4.0372,4.0473,4.0339,4.034,4.0362,4.0599,4.0617,4.0636,4.0463,4.0466,4.0469,4.0594,0,3.9833,3.9963,3.9969,4.0087,4.0149,4.0132,4.0196,4.0237,4.0254,4.0309,4.0329,4.0392,4.0356,4.0378,4.0428,4.045,4.0521,4.0441,4.052,4.0523,4.0507,4.0658,4.0678,4.0794,4.0611,4.0613,4.0615,0,3.9992,4.0044,4.0168,4.0214,4.024,4.0298,4.0356,4.0409,4.0455,4.0464,4.0505,4.0499,4.0575,4.0523,4.0628,4.0574,4.0607,4.0623,4.0627,4.0633,4.0574,4.0668,4.0832,4.0849,4.0641,4.0639,4.0637,0,4.0087,4.0188,4.0275,4.0301,4.0356,4.0397,4.0422,4.0465,4.0503,4.0554,4.0579,4.0639,4.0671,4.0718,4.0728,4.069,4.0833,4.0782,4.0842,4.0842,4.0872,4.087,4.1042,4.0896,4.0895,4.0895,4.0895,0,4.0222,4.0298,4.0318,4.0372,4.0457,4.0464,4.0548,4.057,4.0608,4.0666,4.0656,4.071,4.0721,4.0778,4.0787,4.0872,4.0887,4.0896,4.0898,4.0897,4.0895,4.0917,4.0909,4.09,4.0899,4.0898,4.0897,0,4.0341,4.0358,4.0452,4.0497,4.051,4.0571,4.0609,4.0661,4.0677,4.075,4.0768,4.0794,4.086,4.0876,4.0955,4.0961,4.1061,4.1055,4.1045,4.1045,4.1104,4.1097,4.1295,4.1321,4.1159,4.116,4.1162,0,4.0425,4.0484,4.0535,4.0573,4.06,4.0661,4.0699,4.0708,4.0749,4.0805,4.085,4.0915,4.0967,4.1074,4.11,4.1161,4.1155,4.1221,4.1164,4.1161,4.1155,4.115,4.1156,4.1231,4.1232,4.1234,4.1235,0,4.0572,4.0578,4.0633,4.0693,4.0739,4.0786,4.083,4.0862,4.0877,4.0923,4.0991,4.1032,4.1112,4.1177,4.1238,4.1264,4.1252,4.1253,4.127,4.1268,4.1259,4.1264,4.1073,4.1248,4.1246,4.1245,4.1245,4.1244,4.0676,4.0727,4.0771,4.0833,4.0868,4.091,4.096,4.0983,4.104,4.1105,4.1108,4.1181,4.1226,4.1306,4.1336,4.1393,4.1373,4.1398,4.1404,4.141,4.1414,4.1252,4.1405,4.1404,4.1404,4.1404,4.1403,0,4.0821,4.0849,4.0906,4.0969,4.1018,4.1003,4.1052,4.1094,4.1159,4.1201,4.1253,4.1331,4.1393,4.1425,4.1487,4.1527,4.1523,4.1543,4.1539,4.1545,4.1429,4.1408,4.1545,4.1545,4.1545,4.1545,4.1545,4.1544,4.0902,4.0987,4.0998,4.11,4.1128,4.1199,4.1228,4.1267,4.1301,4.1388,4.144,4.146,4.1498,4.1562,4.1619,4.1627,4.165,4.1672,4.1677,4.1568,4.1553,4.1539,4.1519,4.1677,4.1677,4.1787,4.1788,4.1789]},{"header":{"parameterUnit":"m.s-1","parameterCategory":1,"la1":30.2991,"la2":30.254,"lo1":-89.0895,"lo2":-89.0444,"dy":0.0017,"dx":0.0017,"nx":28,"ny":28,"refTime":"2024-06-05T09:00:00:Z","depth":0,"parameterNumber":3,"parameterNumberName":"V-component_of_WINDS"},"data":[0,0,0,0,0,0,0,0,0,0,0,0,0,0,0,0,0,0,0,0,0,0,0,0,0,0,0,0,0,0,0,0,0,0,0,0,0,0,0,0,0,0,0,0,0,0,0,0,0,0,0,0,0,0,0,0,0,0,1.4045,1.4046,0,1.4123,1.4124,1.4125,1.4135,1.4134,1.4134,1.4133,1.4214,1.4217,1.422,0,0,0,0,0,0,0,0,0,0,0,0,0,1.3904,1.3906,1.4045,1.4046,1.4047,1.4123,1.4124,1.4125,1.4135,1.4134,1.4134,1.4133,1.4213,1.4216,1.422,0,0,0,0,0,0,0,0,0,0,0,0,0,1.3972,1.3907,1.4045,1.4061,1.4063,1.4123,1.4124,1.4126,1.4136,1.4134,1.4133,1.4132,1.4212,1.4216,1.422,1.427,0,0,1.4234,1.4235,0,0,0,0,0,0,0,0,1.3968,1.3977,1.4057,1.406,1.4062,1.4118,1.4104,1.4174,1.4136,1.4108,1.4133,1.4132,1.4183,1.419,1.4207,1.4273,1.4277,1.4234,1.4236,1.4238,1.424,0,0,0,0,0,0,0,1.3963,1.3974,1.4076,1.4059,1.4062,1.4064,1.4073,1.4118,1.4151,1.411,1.4111,1.412,1.4184,1.4203,1.4209,1.4278,1.4234,1.4238,1.424,1.4242,1.4389,1.439,0,0,0,0,0,0,1.3955,1.397,1.4073,1.4078,1.4011,1.4068,1.4077,1.4102,1.4151,1.4157,1.4121,1.4121,1.4196,1.4204,1.4212,1.4273,1.4238,1.4242,1.4245,1.4387,1.4389,1.4391,0,0,0,0,0,0,1.3952,1.3965,1.407,1.4024,1.4038,1.4071,1.4099,1.4104,1.4122,1.4159,1.4165,1.4134,1.4195,1.4206,1.4255,1.4276,1.4244,1.4248,1.4386,1.4388,1.439,1.4395,0,0,0,0,0,0,1.3948,1.3963,1.3982,1.4025,1.404,1.4112,1.41,1.4106,1.413,1.4129,1.4172,1.4179,1.4195,1.4249,1.4259,1.4281,1.4252,1.4384,1.4387,1.4389,1.4394,1.4397,1.4401,0,0,0,0,0,1.3943,1.3981,1.3983,1.3996,1.4065,1.4113,1.4122,1.4141,1.4131,1.4151,1.4174,1.4177,1.4272,1.4254,1.4266,1.4289,1.4383,1.4386,1.4389,1.4392,1.4397,1.4401,0,0,0,0,0,0,1.3941,1.3987,1.399,1.4042,1.4074,1.4115,1.414,1.4145,1.418,1.4179,1.42,1.421,1.4258,1.4279,1.4258,1.4339,1.4326,1.4332,1.4325,1.4329,1.4333,1.4327,1.4255,0,0,0,0,0,1.3946,1.3982,1.402,1.4063,1.4078,1.4106,1.4128,1.414,1.4173,1.4187,1.4214,1.4246,1.4283,1.4307,1.4343,1.4396,1.4406,1.4418,1.4422,1.4424,1.4429,1.4459,1.4465,1.44,1.44,1.44,0,0,1.3958,1.3988,1.4009,1.4063,1.4089,1.4125,1.4118,1.4156,1.4184,1.4193,1.4241,1.4262,1.4299,1.4351,1.4375,1.4369,1.4449,1.4428,1.443,1.4434,1.4463,1.4469,1.4474,1.4402,1.4402,1.4402,0,0,1.3999,1.4024,1.4063,1.4089,1.4127,1.4146,1.4155,1.4195,1.4209,1.4258,1.4266,1.4298,1.4362,1.4388,1.441,1.446,1.4464,1.4471,1.449,1.4518,1.4523,1.4528,1.4546,1.4552,1.4475,1.4475,1.4475,0,1.4009,1.4064,1.4082,1.4121,1.4144,1.4154,1.4193,1.4217,1.4266,1.4282,1.4275,1.4354,1.438,1.4438,1.445,1.4467,1.4479,1.4467,1.4521,1.4526,1.4531,1.4548,1.4555,1.4476,1.4476,1.4476,1.4476,0,1.4074,1.4112,1.4139,1.4185,1.4212,1.4251,1.4275,1.43,1.4308,1.4328,1.4377,1.4408,1.4451,1.4465,1.4474,1.4524,1.452,1.4517,1.4504,1.4537,1.4554,1.4561,1.4477,1.4477,1.4476,1.4476,0,0,1.4117,1.4172,1.4182,1.4203,1.4246,1.4276,1.4315,1.4357,1.4377,1.441,1.4444,1.4497,1.4494,1.4519,1.4531,1.4556,1.4594,1.455,1.4551,1.4557,1.4651,1.4654,1.4661,1.4596,1.4598,1.4599,1.4648,0,1.4163,1.4232,1.425,1.4309,1.4345,1.4354,1.4388,1.4418,1.4437,1.447,1.449,1.4528,1.4521,1.4536,1.4561,1.4584,1.4613,1.458,1.4628,1.463,1.4619,1.467,1.4673,1.4718,1.4655,1.4656,1.4657,0,1.4226,1.426,1.4323,1.4362,1.4377,1.4408,1.4447,1.4478,1.4512,1.4524,1.4551,1.4561,1.4602,1.4587,1.4643,1.4621,1.4641,1.4655,1.4658,1.4663,1.4646,1.4678,1.4733,1.474,1.4667,1.4666,1.4666,0,1.4251,1.4313,1.4358,1.4376,1.4422,1.4443,1.4463,1.4497,1.452,1.4555,1.457,1.4609,1.463,1.466,1.4679,1.4666,1.4735,1.4721,1.4746,1.4745,1.4761,1.476,1.4821,1.4773,1.4772,1.4772,1.4772,0,1.4301,1.4339,1.437,1.4399,1.4442,1.4461,1.4504,1.4524,1.4553,1.4586,1.4595,1.4626,1.4649,1.4683,1.4698,1.4743,1.4753,1.4763,1.4767,1.4763,1.4762,1.4777,1.4775,1.4774,1.4774,1.4773,1.4773,0,1.4337,1.4359,1.4409,1.4449,1.4459,1.449,1.4523,1.4551,1.4569,1.461,1.4621,1.465,1.469,1.4712,1.4762,1.4773,1.4823,1.4825,1.4812,1.4813,1.4837,1.4835,1.4911,1.4922,1.4866,1.4866,1.4867,0,1.4367,1.4397,1.4439,1.4462,1.4482,1.4518,1.4542,1.4562,1.4587,1.4628,1.4651,1.4691,1.4725,1.4788,1.4814,1.4852,1.4855,1.4879,1.4861,1.4856,1.4856,1.4854,1.4858,1.4882,1.4883,1.4883,1.4884,0,1.442,1.4429,1.4464,1.4502,1.4531,1.4562,1.4593,1.4611,1.4636,1.4663,1.4704,1.473,1.4781,1.4821,1.4861,1.4882,1.4887,1.4889,1.4897,1.4893,1.4885,1.489,1.4821,1.4887,1.4887,1.4887,1.4887,1.4886,1.4455,1.4482,1.4515,1.4553,1.4579,1.4607,1.4635,1.4657,1.4692,1.4735,1.4744,1.4787,1.482,1.4875,1.4897,1.4931,1.4926,1.4938,1.4941,1.4943,1.4944,1.4878,1.4938,1.4938,1.4938,1.4938,1.4938,0,1.4508,1.453,1.4565,1.4608,1.4638,1.464,1.4674,1.4699,1.4737,1.4767,1.48,1.4846,1.4885,1.4914,1.4953,1.4975,1.4978,1.4985,1.4983,1.4988,1.4946,1.4935,1.4981,1.4981,1.4981,1.4981,1.4981,1.4981,1.454,1.4585,1.4599,1.4657,1.4679,1.4721,1.474,1.4767,1.4791,1.4843,1.4875,1.4893,1.4923,1.4965,1.5,1.5008,1.5022,1.5028,1.5036,1.4996,1.4991,1.4987,1.4977,1.5031,1.5031,1.5075,1.5076,1.5076]}]]